Regional Weather Roundup
Issued by NWS

Home | Current Version | Previous Version | Text Only | Print | Product List | Glossary On
Versions: 1 2 3 4 5 6 7 8 9 10 11 12 13 14 15 16 17 18 19 20 21 22 23 24 25 26 27 28
000
ASUS45 KSLC 251910
RWRUT

UTAH REGIONAL WEATHER ROUNDUP
NATIONAL WEATHER SERVICE SALT LAKE CITY UT
100 PM MDT THU MAY 25 2017

UTZ001>011-023>025-252000-

NORTHERN UTAH

CITY           SKY/WX    TMP DP  RH WIND       PRES   REMARKS
BRIGHAM CITY   SUNNY     61  21  21 N5        29.76S
DUGWAY         MOSUNNY   68  29  23 NW6G12    29.72F
HILL AFB       MOSUNNY   61  27  27 S10       29.76R
LOGAN          SUNNY     61  23  23 CALM      29.76R
OGDEN          SUNNY     62  27  26 NW13      29.75R
SALT LAKE CITY PTSUNNY   64  27  24 N8        29.74S
TOOELE VALLEY  MOSUNNY   63  34  34 NE3       29.75F
WENDOVER       SUNNY     67  32  27 SE8       29.73S
HEBER CITY     MOSUNNY   64  32  29 S6        29.74R
WEST JORDAN    PTSUNNY   63  41  44 NW7       29.75F

$$

UTZ011>015-024>027-252000-

CENTRAL/NORTHEAST UTAH

CITY           SKY/WX    TMP DP  RH WIND       PRES   REMARKS
PROVO AIRPORT  MOSUNNY   67  36  31 NW10      29.74S
MOAB/CANYONLAN PTSUNNY   83  30  14 NW15G25   29.59F
DELTA          SUNNY     70  30  23 SW8       29.73S
PRICE          MOSUNNY   69  32  25 W15G26    29.72R
ROOSEVELT      CLOUDY    72  32  23 W20G30    29.69F
VERNAL         SUNNY     74  31  20 W22G35    29.64F

$$

UTZ013>016-019>022-027-252000-

SOUTHERN UTAH

CITY           SKY/WX    TMP DP  RH WIND       PRES   REMARKS
BRYCE CANYON   CLOUDY    64  28  25 W17G28    29.87S
CEDAR CITY     SUNNY     76  28  17 W16G24    29.74F
MILFORD        SUNNY     73  29  19 NE7       29.71F
ST GEORGE      PTCLDY    87  26  11 VRB5G16   29.60F
HANKSVILLE     CLOUDY    81  28  15 W8G21     29.64R
BLANDING       MOSUNNY   77  23  13 SW18G25   29.79F

$$

REGIONAL REPORTS     COLORADO/ARIZONA

CITY           SKY/WX    TMP DP  RH WIND       PRES   REMARKS
CRAIG, CO      CLOUDY    61  41  47 CALM      29.72F
GRAND JUNCTION CLOUDY    78  29  16 W16G28    29.61R
RIFLE, CO      PTSUNNY   77  26  15 W31G39    29.64F
MONTROSE, CO   SUNNY     76  21  12 W20G31    29.68F
CORTEZ, CO     SUNNY     79  22  12 W17G31    29.76F
COLORADO CITY    N/A     82  30  15 SW9G16    29.76S
PAGE, AZ       SUNNY     86  21   9 W12G24    29.66S
GRAND CANYON   MOSUNNY   76  25  15 SW20G36   29.85F
KINGMAN, AZ    SUNNY     88  25  10 SW25G39   29.71F
FLAGSTAFF, AZ  SUNNY     70  21  15 SW18G36   29.94S HAZE

$$

REGIONAL REPORTS    NEVADA/IDAHO/WYOMING

CITY           SKY/WX    TMP DP  RH WIND       PRES   REMARKS
LAS VEGAS, NV  MOSUNNY   94  16   6 S13G24    29.54F
ELY, NY        MOSUNNY   66  28  24 W15G23    29.80S
ELKO, NV       MOSUNNY   65  25  22 W12G22    29.75F
POCATELLO, ID  MOSUNNY   58  35  42 NW9       29.79S
BURLEY, ID     MOSUNNY   56  29  35 W7        29.78S
FORT BRIDGER,  CLOUDY    56  28  33 W16       29.81R
EVANSTON, WY     N/A     56  33  42 W21       29.79R
ROCK SPRINGS,  CLOUDY    57  26  30 W20G26    29.75S
KEMMERER, WY     N/A     52  28  40 W18G25    29.80R

$$




USA.gov is the U.S. government's official web portal to all federal, state and local government web resources and services.